Weather History for Saranac Lake, NY

Change the Weather History Date:

Monday, February 18, 2013

  Actual Average Record
Temperature  
Mean Temperature 7 °F 15 °F  
Max Temperature 18 °F 29 °F 51 °F (1981)
Min Temperature -5 °F 2 °F -35 °F (1979)
Degree Days  
Heating Degree Days 58 50  
Month to date heating degree days 984 920  
Since 1 July heating degree days 5893 6222  
Moisture  
Dew Point -7 °F    
Average Humidity 59    
Maximum Humidity 87    
Minimum Humidity 30    
Precipitation  
Precipitation T in 0.05 in 1.00 in (1952)
Month to date precipitation 0.45 1.07  
Year to date precipitation 1.68 3.20  
Sea Level Pressure  
Sea Level Pressure 30.06 in    
Wind  
Wind Speed 5 mph (West)    
Max Wind Speed 13 mph    
Max Gust Speed 25 mph    
Visibility 7 miles    
Events      
T = Trace of Precipitation, MM = Missing Value Source: NWS Daily Summary

Daily Weather History Graph

Daily Weather History Graph

Search for Another Location

Airport:

Trip Planner

Search our weather history database for the weather conditions in past years. The results will help you decide how hot, cold, wet, or windy it might be!

Date:

Astronomy

Feb. 18, 2013 Rise Set
Actual Time 6:51 AM EST 5:30 PM EST
Civil Twilight 6:22 AM EST 6:00 PM EST
Nautical Twilight 5:48 AM EST 6:33 PM EST
Astronomical Twilight 5:14 AM EST 7:07 PM EST
Moon 11:07 AM EST (2/18) 1:35 AM EST (2/18)
Length of Visible Light 11h 37m
Length of Day
10h 38m
First Quarter, 58% of the Moon is Illuminated
Feb 18
First Quarter
Feb 25
Full
Mar 4
Last Quarter
Mar 11
New
Mar 19
First Quarter

Hourly Weather History & Observations

Time (EST) Temp. Windchill Dew Point Humidity Pressure Visibility Wind Dir Wind Speed Gust Speed Precip Events Conditions
12:14 AM 1.4 °F -12.5 °F -4.0 °F 78% 29.83 in 3.0 mi WNW 8.1 mph 16.1 mph 0.00 in   Haze
12:51 AM 1.0 °F -14.0 °F -5.1 °F 75% 29.96 in 3.0 mi WNW 9.2 mph 16.1 mph 0.00 in   Haze
1:29 AM -0.4 °F -15.7 °F -5.8 °F 78% 29.86 in 2.5 mi WNW 9.2 mph 19.6 mph N/A   Haze
1:36 AM -0.4 °F -16.7 °F -5.8 °F 78% 29.86 in 3.0 mi WNW 10.4 mph 18.4 mph N/A   Haze
1:51 AM -0.9 °F -15.3 °F -6.0 °F 79% 29.99 in 3.0 mi West 8.1 mph - N/A   Haze
2:04 AM -0.4 °F -14.7 °F -5.8 °F 78% 29.87 in 2.5 mi West 8.1 mph 23.0 mph N/A   Haze
3:51 AM -2.9 °F -16.5 °F -8.0 °F 79% 30.04 in 6.0 mi Variable 6.9 mph - N/A   Haze
4:34 AM -2.2 °F -12.5 °F -7.6 °F 78% 29.93 in 2.5 mi West 4.6 mph - N/A   Haze
4:51 AM -2.9 °F -16.5 °F -8.0 °F 79% 30.07 in 2.5 mi Variable 6.9 mph - N/A   Haze
4:56 AM -2.2 °F -14.2 °F -7.6 °F 78% 29.94 in 3.0 mi Variable 5.8 mph - N/A   Haze
5:24 AM -4.0 °F -20.2 °F -7.6 °F 85% 29.96 in 6.0 mi West 9.2 mph - N/A   Overcast
5:46 AM -4.0 °F -16.3 °F -7.6 °F 85% 29.97 in 6.0 mi West 5.8 mph - N/A   Mostly Cloudy
5:51 AM -4.0 °F -17.8 °F -8.0 °F 83% 30.11 in 7.0 mi West 6.9 mph - N/A   Mostly Cloudy
6:02 AM -4.0 °F -19.0 °F -7.6 °F 85% 29.98 in 9.0 mi West 8.1 mph - N/A   Scattered Clouds
6:51 AM -4.0 °F -12.4 °F -9.0 °F 79% 30.13 in 10.0 mi Variable 3.5 mph - N/A   Clear
7:51 AM -5.1 °F -19.1 °F -9.0 °F 83% 30.17 in 10.0 mi SW 6.9 mph - N/A   Clear
8:51 AM -0.9 °F -14.1 °F -7.1 °F 75% 30.17 in 10.0 mi WSW 6.9 mph - N/A   Clear
9:51 AM 3.0 °F -11.5 °F -8.0 °F 60% 30.16 in 10.0 mi WSW 9.2 mph - N/A   Clear
11:51 AM 10.9 °F -0.8 °F -11.0 °F 37% 30.15 in 10.0 mi West 8.1 mph - N/A   Clear
12:51 PM 12.9 °F -0.2 °F -9.9 °F 35% 30.14 in 10.0 mi WSW 10.4 mph 20.7 mph N/A   Clear
1:51 PM 16.0 °F 3.6 °F -9.0 °F 32% 30.13 in 10.0 mi West 10.4 mph - N/A   Clear
2:51 PM 17.1 °F 6.6 °F -9.0 °F 31% 30.15 in 10.0 mi West 8.1 mph 16.1 mph N/A   Clear
3:51 PM 17.1 °F 7.6 °F -6.0 °F 36% 30.14 in 10.0 mi WSW 6.9 mph - N/A   Clear
4:51 PM 16.0 °F 8.8 °F -5.1 °F 39% 30.14 in 10.0 mi West 4.6 mph - N/A   Clear
5:51 PM 10.0 °F - -5.1 °F 51% 30.17 in 10.0 mi Calm Calm - N/A   Clear
6:51 PM 6.1 °F - -5.1 °F 60% 30.19 in 10.0 mi Calm Calm - N/A   Clear
7:51 PM 1.0 °F - -6.0 °F 72% 30.18 in 10.0 mi Calm Calm - N/A   Clear
8:51 PM -2.0 °F - -7.1 °F 79% 30.17 in 10.0 mi Calm Calm - N/A   Clear
9:51 PM -2.9 °F - -8.0 °F 79% 30.15 in 10.0 mi Calm Calm - N/A   Mostly Cloudy
10:51 PM -2.0 °F - -7.1 °F 79% 30.11 in 10.0 mi Calm Calm - N/A   Clear
11:51 PM -0.0 °F - -6.0 °F 76% 30.09 in 10.0 mi Calm Calm - N/A   Mostly Cloudy